GEFSSE_500_meanwind_042.txt.gz
Wind_Speed
4 5 4 4 5 5 5 6 7 8 8 8 8 8 8 8 8 9 10 10 11 11 12 12 12 12 12 12 11 9 8 7 7 7 6 4 4 4 4 5 6 6 5
2 3 2 2 3 3 4 5 6 7 8 8 8 8 7 7 7 7 8 8 9 10 10 10 10 10 10 11 10 10 8 7 6 6 6 4 3 2 2 2 3 4 3
0 1 1 1 2 2 3 4 6 7 7 7 7 7 7 7 7 7 7 7 8 8 9 9 9 9 9 9 9 9 8 7 6 5 5 4 3 2 0 1 1 1 1
2 3 2 3 3 3 4 5 6 7 7 7 7 7 7 7 7 7 7 7 8 8 8 8 9 9 8 8 8 8 8 7 6 5 5 4 4 3 2 1 2 2 2
4 5 5 5 5 5 5 6 7 7 8 8 8 8 8 9 9 9 8 9 9 9 8 8 8 9 9 8 8 8 7 7 7 6 5 5 5 5 4 3 3 3 4
6 7 7 7 7 7 7 8 8 9 9 9 10 10 10 10 11 11 10 10 10 10 10 10 10 10 10 10 9 9 8 8 7 7 6 6 7 7 6 6 6 5 5
6 7 7 8 8 8 9 9 10 10 11 12 12 13 13 13 13 12 12 12 12 12 12 12 11 11 11 11 11 11 10 10 9 8 7 7 8 8 8 8 8 8 8
7 8 8 8 9 10 10 11 12 13 14 15 16 16 16 15 15 14 14 14 14 14 14 14 13 13 13 13 13 13 12 12 11 10 9 9 9 9 10 10 10 11 11
10 10 10 11 11 12 13 14 15 16 17 18 19 19 18 18 18 17 17 17 17 16 16 16 16 16 15 15 15 15 15 14 13 12 11 11 11 11 11 11 11 12 13
12 13 13 14 14 15 16 17 18 19 20 21 21 21 21 21 21 20 20 20 20 19 19 19 19 19 18 18 18 17 17 17 15 14 14 13 13 13 13 13 13 13 14
15 15 15 16 16 17 18 19 19 20 21 22 22 23 23 23 23 23 23 24 23 23 22 22 22 22 22 22 21 20 21 20 19 18 16 16 16 15 15 15 15 14 14
18 18 18 18 19 19 20 21 21 22 22 23 24 24 25 25 25 25 25 26 26 26 26 26 25 26 26 26 26 25 24 24 22 21 19 18 18 18 17 18 18 17 16
20 21 22 22 22 23 23 23 24 23 24 24 25 26 26 26 27 27 26 27 28 28 28 28 28 28 29 29 30 28 28 27 26 25 23 22 22 21 21 21 21 20 20
24 25 25 26 26 26 26 27 26 26 26 26 26 26 27 27 27 27 28 28 28 28 29 29 29 29 30 31 31 30 29 29 30 30 28 26 25 25 25 24 24 23 23
27 28 29 29 29 28 29 29 29 28 28 28 27 27 28 28 28 28 28 28 29 29 29 29 30 30 30 32 32 33 33 32 31 32 31 29 28 28 27 27 27 27 26
30 31 32 32 31 31 30 30 30 29 28 28 28 28 28 28 29 29 29 28 27 28 28 28 28 29 30 30 31 32 32 32 32 32 32 31 31 31 29 28 28 29 29
34 35 35 34 33 32 32 32 31 30 28 28 29 29 28 28 28 28 27 26 25 26 26 26 27 28 29 29 30 31 30 31 31 31 32 33 33 32 31 30 29 29 30
38 37 37 36 35 34 33 33 31 30 29 28 28 28 27 27 27 26 25 24 24 24 24 24 25 26 27 28 29 30 31 31 31 31 31 32 32 32 32 31 30 29 29
41 39 37 37 37 36 35 33 31 29 28 28 28 27 27 26 25 24 23 23 22 22 22 22 22 23 24 26 28 29 30 31 31 32 31 31 31 31 31 32 31 31 30
40 38 37 37 38 38 36 35 33 30 29 29 28 27 26 25 24 24 23 22 22 21 21 20 21 22 23 25 27 28 29 30 31 31 31 31 31 30 31 32 31 31 31
39 41 39 38 38 38 37 36 34 31 29 29 27 25 25 25 24 23 22 21 21 21 21 21 22 23 24 26 27 28 29 30 31 31 31 31 30 31 32 31 32 31 31
39 41 39 38 38 38 36 35 33 31 30 28 27 25 24 24 23 22 22 22 21 21 22 22 23 23 24 26 28 29 29 30 31 30 30 30 30 29 30 30 31 31 31
38 38 38 38 39 39 38 36 33 32 31 30 27 25 25 24 24 23 23 23 23 23 23 23 23 24 25 27 28 30 30 29 30 30 30 30 30 30 30 29 29 30 30
37 37 39 40 40 40 39 37 34 33 32 31 29 27 26 26 25 25 25 25 25 25 25 25 25 25 26 27 29 31 31 31 30 28 29 29 29 30 30 29 29 29 28
37 38 38 37 38 38 37 37 35 34 32 31 30 29 29 29 28 28 29 29 29 28 28 28 28 28 28 28 29 30 31 31 31 29 27 29 29 30 29 28 28 27 26
35 36 36 36 37 38 38 38 37 36 34 33 33 32 32 32 32 32 32 32 33 32 32 31 31 30 30 30 30 31 31 31 31 30 27 27 28 29 29 28 28 27 27

GEFSSE_500_meanwind_048.txt.gz
Wind_Speed
2 2 3 3 4 4 5 5 6 7 7 8 8 9 10 10 11 11 12 12 12 12 12 12 11 11 11 10 10 9 8 8 8 8 7 6 6 6 7 7 8 8 8
0 1 2 2 3 3 4 4 5 5 6 7 7 8 9 10 10 10 11 11 12 12 11 11 11 11 10 10 9 9 8 7 6 6 6 5 5 5 5 5 5 6 6
1 2 2 3 3 4 4 4 4 5 5 6 7 7 8 8 9 10 10 11 11 11 11 10 10 10 10 10 9 8 8 7 6 5 4 5 4 4 3 3 3 3 4
3 3 3 4 4 4 5 5 5 5 5 6 6 7 7 8 9 9 9 10 10 10 10 10 10 10 10 9 9 8 8 7 6 5 4 3 3 3 3 2 1 1 2
4 4 4 4 5 5 6 6 6 6 6 6 7 7 8 8 9 9 10 10 10 10 10 10 10 10 10 9 9 8 7 7 6 6 4 3 2 1 1 1 1 1 1
5 4 5 5 5 6 6 7 7 7 7 7 8 8 9 9 9 10 10 10 10 10 10 10 10 10 10 10 9 8 7 6 6 6 5 4 3 1 1 1 1 1 0
6 6 6 6 7 7 7 8 8 9 9 9 10 10 11 11 11 11 11 11 11 11 11 11 11 11 11 11 10 9 8 7 6 6 6 5 4 3 3 3 3 2 2
7 7 8 8 9 9 10 10 10 11 11 12 12 13 13 13 13 13 13 13 13 13 14 14 14 13 13 13 12 11 10 9 8 7 7 7 6 6 5 5 5 4 4
9 10 11 11 11 11 12 12 13 13 14 14 15 15 15 16 16 16 16 16 16 16 16 16 16 16 16 16 15 14 13 12 11 10 10 9 9 8 8 7 7 6 6
11 12 13 13 13 13 13 14 14 15 15 16 17 17 17 18 18 18 18 18 18 18 19 19 19 19 19 19 18 17 16 15 14 14 13 12 11 11 10 10 9 9 8
14 15 15 16 15 15 15 15 15 16 16 17 18 18 19 20 20 20 21 21 21 21 21 21 21 22 22 22 21 21 21 20 18 18 17 16 14 13 13 12 12 11 11
19 19 19 18 18 17 17 17 17 17 18 19 19 20 21 21 22 22 22 22 22 22 22 22 22 23 23 24 23 22 23 22 22 21 20 20 18 17 16 15 15 14 14
23 24 24 22 21 20 20 20 20 20 20 20 21 21 22 22 22 23 23 23 23 23 23 23 23 23 23 23 23 22 22 23 23 24 24 23 22 21 19 18 18 17 17
26 26 26 25 24 23 23 23 23 23 22 22 22 23 24 24 24 23 23 23 23 24 24 24 24 23 22 23 22 22 23 23 24 25 25 25 26 26 24 23 21 20 20
27 27 28 29 28 27 26 26 25 24 24 23 23 24 24 25 25 25 24 24 23 23 24 24 24 23 22 21 21 21 21 22 23 23 24 25 27 28 27 27 26 24 23
31 30 31 33 33 30 29 28 26 26 25 24 25 26 25 24 25 25 25 24 23 23 22 22 22 21 20 20 20 20 20 21 22 22 23 23 24 26 26 27 28 28 27
35 35 35 36 36 34 32 30 29 28 27 27 28 27 25 24 25 25 25 24 23 22 21 21 20 19 17 17 17 17 17 18 19 20 20 21 23 24 25 27 28 29 29
41 42 40 38 37 35 34 33 31 30 29 28 28 26 25 25 25 24 24 24 23 22 21 20 19 18 17 16 15 15 15 16 16 17 18 20 21 22 24 25 27 29 29
41 42 41 41 37 35 34 31 30 30 28 27 27 26 26 25 24 23 24 23 22 21 20 20 19 18 17 16 15 14 14 15 15 16 17 19 20 21 23 26 26 28 29
40 39 39 37 35 32 32 30 28 28 29 28 27 26 24 25 25 24 24 23 22 21 21 21 20 19 18 17 16 16 16 15 16 16 17 19 20 21 23 25 27 27 30
39 38 36 33 30 30 29 29 28 27 27 27 26 25 24 24 24 24 24 23 23 22 21 21 21 20 19 18 18 17 17 16 16 17 18 19 20 21 23 25 26 26 29
35 34 33 31 30 28 29 28 29 28 27 27 27 26 25 25 25 25 24 24 24 23 22 22 21 21 21 20 19 18 18 19 18 19 19 19 20 22 23 24 26 27 29
34 33 32 32 30 29 28 30 30 28 27 27 26 26 25 26 26 25 25 25 25 24 24 23 23 22 22 22 21 20 20 20 21 22 21 21 21 22 23 24 26 27 29
32 32 32 31 31 30 30 29 27 27 27 26 26 26 26 26 27 27 26 27 27 26 26 25 25 24 24 24 24 23 23 22 22 23 24 24 23 23 24 24 25 27 28
32 33 33 33 34 34 33 32 32 31 30 30 30 30 30 29 29 29 29 29 29 29 29 29 28 27 27 27 27 26 26 25 24 23 24 26 25 24 24 24 25 26 27
34 36 36 37 38 38 38 38 37 37 36 35 35 35 34 34 34 33 32 31 31 32 32 32 31 30 30 30 30 29 29 28 28 26 25 26 27 27 25 24 24 24 26

GEFSSE_500_meanwind_054.txt.gz
Wind_Speed
4 4 4 5 6 6 5 5 5 5 5 5 6 6 7 8 9 9 10 10 10 10 10 10 10 9 9 8 8 7 6 6 6 6 6 7 7 8 7 7 7 7 8
6 6 6 7 7 6 6 6 5 5 4 4 4 5 5 6 6 7 8 8 8 8 8 8 9 9 8 8 7 6 5 5 4 4 5 5 5 6 6 6 6 7 7
7 7 8 9 8 8 7 7 6 6 5 5 4 4 5 5 6 6 7 7 7 7 7 7 7 7 7 7 6 5 4 3 3 3 3 3 4 4 5 6 6 6 7
8 9 10 10 10 9 8 8 8 7 7 6 6 5 5 6 6 7 7 7 7 7 6 6 6 6 6 6 5 4 3 2 1 1 1 2 3 4 5 6 6 6 6
10 11 12 12 11 10 10 9 9 9 9 8 8 8 7 7 8 8 8 8 8 8 7 7 6 6 6 6 5 5 3 2 1 1 2 3 4 5 5 6 6 7 6
11 12 13 13 12 11 11 11 11 11 11 11 10 10 10 10 10 10 11 11 10 10 9 9 8 8 7 7 6 6 5 4 3 2 3 3 4 5 6 6 6 6 6
12 13 13 13 13 12 13 13 14 13 13 13 13 13 13 13 13 13 13 13 13 12 12 11 11 11 10 9 9 8 7 6 6 5 4 4 5 6 6 7 7 7 7
13 14 14 14 13 14 14 14 15 15 15 16 16 16 16 17 17 17 16 16 16 15 15 15 15 14 14 13 12 12 11 10 9 8 7 6 6 7 7 7 8 8 8
14 14 15 15 15 15 16 16 17 17 18 18 18 19 19 19 19 19 19 19 19 18 18 18 18 17 17 16 15 15 14 14 13 13 11 10 9 9 9 9 9 9 9
14 16 17 17 18 18 18 19 20 20 20 20 20 21 21 21 21 21 21 21 21 21 20 20 20 20 19 19 18 17 17 17 17 16 15 14 12 12 11 11 11 11 11
17 18 20 21 22 21 21 21 22 22 23 23 23 23 22 22 22 22 22 22 22 21 21 21 21 21 21 20 20 20 19 19 19 19 18 17 16 15 14 13 13 13 13
20 22 24 25 25 25 26 26 26 25 25 25 25 25 24 23 23 23 23 22 22 22 21 21 21 21 21 21 21 20 20 20 21 21 20 19 19 19 17 17 16 16 16
24 25 27 28 29 29 30 30 30 30 29 28 28 27 26 25 25 24 23 23 23 22 21 21 21 21 22 22 21 21 21 21 21 21 22 22 21 21 21 21 20 20 19
26 28 29 30 31 32 33 34 33 33 32 31 30 30 29 28 27 25 24 23 24 23 22 21 21 21 21 22 22 22 21 21 21 21 20 21 21 22 23 22 22 23 24
29 31 32 33 35 35 34 35 36 35 35 33 33 32 31 29 28 27 26 25 24 24 23 23 22 22 21 21 21 21 21 22 21 20 20 20 20 21 22 23 24 24 25
32 33 34 36 39 39 37 37 38 37 36 37 36 34 33 31 30 29 28 27 26 25 24 23 23 22 22 21 20 20 20 20 19 18 18 18 19 20 21 22 22 24 25
32 33 36 38 40 40 40 39 38 37 39 38 37 37 35 33 30 29 28 27 26 24 24 23 23 22 22 20 20 19 18 18 17 17 17 17 17 18 19 20 21 22 23
32 34 37 39 40 41 42 43 41 38 38 36 35 34 33 31 30 28 27 27 25 25 24 23 22 22 21 21 20 19 18 17 17 16 16 16 16 16 17 17 19 21 22
35 36 38 40 41 42 42 40 39 36 34 33 31 29 31 31 29 29 28 26 25 24 24 23 22 22 21 20 20 20 19 18 18 17 16 16 15 15 16 16 17 18 20
36 38 39 40 41 41 38 37 34 30 29 29 27 26 27 29 29 28 26 25 23 23 24 23 22 21 21 21 21 21 21 20 19 18 17 16 15 15 15 15 15 17 19
39 40 42 41 40 37 34 31 29 26 23 24 25 24 24 26 26 25 24 25 24 24 24 24 23 22 22 22 22 22 22 21 21 20 19 17 16 15 15 15 15 16 17
41 41 41 41 39 37 33 30 28 25 21 21 23 24 25 26 25 25 25 25 25 25 25 25 25 24 24 23 23 23 23 22 22 21 20 19 18 16 16 15 15 16 17
42 42 39 39 38 37 34 32 30 28 27 25 24 24 26 26 27 27 27 26 26 26 26 26 26 26 26 25 25 24 24 24 24 23 22 20 19 18 18 17 16 16 17
40 40 39 38 38 38 36 35 33 31 31 30 29 28 27 28 29 29 28 28 28 28 28 29 28 28 28 28 27 27 26 26 25 25 24 23 21 20 19 19 19 18 19
36 36 36 37 38 38 39 39 38 36 35 35 34 33 32 32 32 31 31 31 31 31 32 32 32 32 31 31 30 30 29 28 28 27 26 25 23 22 21 21 21 20 20
35 35 36 38 39 40 42 42 42 42 41 41 40 39 39 38 38 37 37 37 37 37 36 36 36 36 35 34 34 33 32 31 30 28 28 27 26 24 23 22 22 22 21

GEFSSE_500_meanwind_060.txt.gz
Wind_Speed
3 3 4 4 5 6 7 7 7 7 7 6 5 4 3 4 4 5 5 5 6 6 6 6 6 5 5 5 4 4 4 4 4 4 3 3 4 4 5 5 5 5 5
4 4 4 5 6 7 8 8 9 9 8 8 7 5 4 4 4 4 4 4 4 4 4 4 4 4 4 4 3 3 2 2 2 2 2 2 3 3 4 4 4 5 5
5 5 5 5 6 7 8 9 10 10 10 9 9 8 6 6 5 4 4 4 3 3 2 2 2 2 2 2 2 1 1 1 0 1 1 2 2 3 3 4 4 4 5
5 5 5 6 7 8 9 10 10 10 10 11 10 9 8 8 7 6 6 5 5 4 3 2 2 2 1 1 1 0 0 1 1 1 2 2 2 3 3 3 4 4 5
5 5 6 7 8 8 9 10 11 11 11 11 11 11 11 10 10 9 9 8 7 6 6 5 4 4 4 3 3 2 1 2 2 3 3 3 4 4 4 4 5 5 6
6 6 7 7 8 9 10 10 11 11 12 12 13 13 13 13 13 12 11 11 10 9 8 8 7 7 6 6 5 5 3 3 3 3 4 5 5 5 6 6 6 7 7
7 7 8 8 9 10 10 11 12 13 14 14 14 15 15 15 15 15 14 14 13 12 11 11 10 10 10 9 8 7 7 6 5 5 5 6 6 7 7 8 8 8 9
9 10 10 11 11 12 13 14 15 16 16 16 17 17 18 18 18 18 17 17 16 15 15 14 13 13 13 12 12 11 10 9 8 8 8 8 8 8 9 10 10 10 10
11 12 13 13 14 15 16 17 18 19 19 19 19 20 21 21 21 21 21 20 19 18 17 17 16 16 16 15 15 14 13 13 12 11 11 10 10 10 11 11 12 12 12
14 15 15 16 17 18 19 20 21 21 22 22 22 23 23 24 24 24 23 23 22 20 20 19 19 19 19 18 18 17 16 16 15 15 14 13 13 13 13 13 13 14 14
16 17 18 19 20 21 22 23 23 24 25 25 25 26 27 27 27 26 25 25 24 23 22 21 21 21 21 20 20 19 18 18 18 17 17 16 16 16 16 16 16 16 16
20 20 21 22 23 25 25 26 27 27 27 28 28 29 29 29 29 29 28 27 26 25 24 23 22 21 21 21 21 20 20 19 19 19 19 19 19 18 18 18 18 18 18
23 23 24 25 25 27 28 28 29 30 30 30 31 31 31 32 32 31 31 29 28 28 26 25 24 23 23 23 22 21 21 21 21 21 20 19 20 20 20 20 20 20 20
26 26 26 27 28 29 30 31 31 32 33 33 33 33 33 34 34 34 33 32 31 30 28 27 26 25 24 24 23 22 22 21 21 21 21 21 21 21 20 20 20 21 22
29 30 30 30 31 32 33 34 34 34 35 35 35 36 35 35 36 36 36 36 34 31 30 28 27 26 26 25 25 23 22 22 21 21 21 21 21 21 21 21 20 20 22
32 33 33 33 34 35 36 37 36 36 37 37 37 36 36 37 37 38 38 38 36 34 32 30 29 28 27 26 25 24 23 23 22 21 21 21 20 20 21 21 21 21 22
33 35 35 36 36 37 38 39 38 38 38 37 37 36 37 38 38 38 38 39 38 37 35 33 31 29 28 27 26 25 24 23 22 22 21 20 20 20 20 20 20 20 21
35 37 38 38 38 39 40 39 39 39 38 37 36 35 36 36 37 38 37 38 40 38 36 33 33 30 29 27 27 26 25 24 23 22 21 20 19 18 18 18 18 18 18
36 38 39 39 40 41 40 40 39 40 39 37 36 37 37 35 35 36 35 36 37 37 37 35 33 32 29 29 28 26 25 25 23 22 22 20 19 17 17 16 16 16 16
37 38 40 41 41 41 41 41 41 40 39 37 36 36 36 34 31 30 33 33 34 35 35 35 34 33 31 30 29 27 26 25 24 23 22 21 20 19 18 16 16 15 15
37 39 40 42 42 43 42 41 40 39 38 37 35 33 32 31 30 30 32 32 34 35 34 33 32 32 31 30 29 28 27 26 25 25 24 23 22 21 19 17 16 15 14
36 38 40 41 41 41 41 40 40 40 38 36 34 33 31 30 29 28 29 30 32 33 34 32 31 31 30 30 30 29 28 28 27 26 26 25 23 22 20 19 17 16 15
34 36 37 38 39 39 39 40 40 39 38 36 35 33 31 30 30 29 29 30 31 31 32 31 31 31 31 31 31 31 30 30 29 28 27 26 25 24 23 21 19 17 16
33 34 35 36 38 39 39 39 39 38 37 37 36 35 34 32 31 32 32 32 33 33 33 33 33 33 34 33 32 32 32 31 31 30 30 29 28 27 25 23 22 20 18
34 36 37 38 39 40 40 40 40 40 40 40 39 39 39 38 37 36 36 36 36 36 36 36 36 36 36 36 36 35 35 34 34 33 32 31 31 30 28 26 24 22 21
36 37 38 39 40 41 42 43 43 44 44 44 44 43 43 42 42 42 42 41 41 40 40 40 40 40 39 39 39 38 37 37 37 35 34 34 34 33 31 29 27 25 23